Regional Weather Roundup
Issued by NWS

Home | Current Version | Previous Version | Text Only | Print | Product List | Glossary Off
Versions: 1 2 3 4 5 6 7 8 9 10 11 12 13 14 15 16 17 18 19 20 21 22 23 24 25 26 27 28 29 30 31 32 33 34 35 36 37 38 39 40 41 42 43 44 45 46 47 48 49 50

000
ASUS45 KSLC 270010
RWRUT

UTAH REGIONAL WEATHER ROUNDUP
NATIONAL WEATHER SERVICE SALT LAKE CITY UT
600 PM MDT TUE AUG 26 2014

UTZ001>011-023>025-270100-

NORTHERN UTAH

CITY           SKY/WX    TMP DP  RH WIND       PRES   REMARKS
HILL AFB       PTSUNNY   71  42  34 E8        30.11R
LOGAN          PTSUNNY   73  46  38 E26       30.11R
OGDEN          CLOUDY    75  43  31 NE5       30.08R
PROVO AIRPORT  PTSUNNY   73  55  53 W7        30.11R
SALT LAKE CITY CLOUDY    75  39  27 E15       30.07R
VERNAL         CLOUDY    70  54  56 W8        30.17S
WENDOVER       CLOUDY    75  43  31 SW8       30.09S
HEBER CITY     CLOUDY    70  45  40 SE5       30.17R
WEST JORDAN    CLOUDY    66  52  59 SW9G26    30.13R

$$

UTZ012>022-026-027-270100-

SOUTHERN UTAH

CITY           SKY/WX    TMP DP  RH WIND       PRES   REMARKS
BRYCE CANYON   CLOUDY    58  41  53 CALM      30.31S
CEDAR CITY     CLOUDY    67  53  61 CALM      30.13F
MILFORD        CLOUDY    69  54  58 SE6       30.08S
MOAB/CYNLANDS  CLOUDY    71  47  42 W15       30.17R
PRICE          CLOUDY    66  46  48 NE7       30.22F
ST GEORGE      CLOUDY    82  52  34 N14       29.96S
KANAB          PTSUNNY   72  52  49 NE14G20   30.14F

$$

REGIONAL REPORTS     COLORADO/ARIZONA

CITY           SKY/WX    TMP DP  RH WIND       PRES   REMARKS
CRAIG, CO      PTSUNNY   70  47  43 E13       30.24F
GRAND JUNCTION PTSUNNY   76  49  38 E9        30.12F
RIFLE          PTSUNNY   68  53  58 NW3       30.21S
MONTROSE       CLOUDY    66  53  63 S13       30.25R
CORTEZ         LGT RAIN  64  56  75 W6        30.22R
PAGE, AZ       CLOUDY    70  55  59 E10       30.14F
GRAND CANYON   CLOUDY    61  50  67 S9        30.27F
KINGMAN        SUNNY     84  52  33 SW15G22   30.04F
FLAGSTAFF      CLOUDY    57  50  77 N5        30.31F THUNDER

$$

REGIONAL REPORTS    NEVADA/IDAHO/WYOMING

CITY           SKY/WX    TMP DP  RH WIND       PRES   REMARKS
LAS VEGAS, NV  MOSUNNY   94  31  10 S21G28    29.84F
ELY            CLOUDY    59  42  53 CALM      30.24F
ELKO           PTSUNNY   68  45  43 S23G30    30.14R
POCATELLO, ID  MOSUNNY   77  44  30 W6        30.13S
BURLEY         MOSUNNY   77  47  34 VRB5      30.08F
EVANSTON, WY   PTSUNNY   60  43  53 E12       30.30F
ROCK SPRINGS   CLOUDY    64  37  36 S13       30.25R

$$



USA.gov is the U.S. government's official web portal to all federal, state and local government web resources and services.